Home   Weather   Tønsberg   Past weeks

Flag for Norway Past Weather in Tønsberg, Norway — Yesterday and Last 2 Weeks

Now
50 °F

Passing clouds.


Feels Like: 41 °F
Forecast: 45 / 58 °F
Wind: 35 mph from West

Location: Oseberg

Current Time: Sep 30, 2016 at 3:32:31 AM

Latest Report: Sep 30, 2016 at 2:50 AM


Visibility: N/A

Pressure: 29.30 "Hg

Humidity: 71%

Dew Point: 41 °F

Location of TønsbergLocation

Past Weather in Tønsberg — Graph

°F

Tønsberg Temperature Yesterday

Maximum temperature yesterday: 57 °F (at 3:50 AM)
Minimum temperature yesterday: 48 °F (at 5:50 PM)
Average temperature yesterday: 52 °F

High & Low Weather Summary for the Past Weeks

 TemperatureHumidityPressure
High66 °F (Sep 16, 6:20 AM)100% (Sep 15, 1:50 AM)30.18 "Hg (Sep 15, 1:50 AM)
Low48 °F (Sep 29, 5:50 PM)63% (Sep 23, 1:50 PM)28.74 "Hg (Sep 29, 1:20 PM)
Average57 °F88%29.89 "Hg
* Reported Sep 15 1:50 AM — Sep 30 1:50 AM, Tønsberg, Weather by CustomWeather, © 2016

Note: Actual official high and low records may vary slightly from our data, if they occured in-between our weather recording intervals... More about our weather records

Advertising

Tønsberg Weather History for the Previous 24 Hours

Scroll right to see more
 ConditionsComfort  
Time TempWeatherWind HumidityBarometerVisibility
1:50 AM
Fri, Sep 30
50 °FPassing clouds.32 mph71%29.30 "HgN/A
12:50 AM50 °FPassing clouds.33 mph67%29.30 "HgN/A
11:50 PM
Thu, Sep 29
50 °FPassing clouds.24 mph76%29.30 "HgN/A
10:50 PM48 °FPassing clouds.31 mph76%29.27 "HgN/A
9:50 PM48 °FSprinkles. Passing clouds.33 mph76%29.24 "HgN/A
8:50 PM50 °FPassing clouds.36 mph67%29.24 "HgN/A
7:50 PM50 °FScattered showers. Passing clouds.37 mph71%29.21 "HgN/A
6:50 PM50 °FScattered showers. Partly sunny.39 mph82%29.15 "HgN/A
5:50 PM48 °FRain. Broken clouds.47 mph87%29.06 "HgN/A
5:20 PM50 °FScattered showers. Partly sunny.46 mph82%29.06 "HgN/A
4:50 PM50 °FScattered showers. Partly sunny.48 mph88%28.97 "HgN/A
4:20 PM50 °FScattered showers. Partly sunny.52 mph88%28.94 "HgN/A
3:50 PM54 °FScattered showers. Partly sunny.40 mph82%28.88 "HgN/A
3:20 PM54 °FScattered clouds.40 mph88%28.85 "HgN/A
2:50 PM52 °FPartly sunny.43 mph94%28.82 "HgN/A
2:20 PM52 °FPartly sunny.47 mph94%28.77 "HgN/A
1:50 PM54 °FPartly sunny.36 mph94%28.74 "HgN/A
1:20 PM50 °FPartly sunny.48 mph100%28.74 "Hg3 mi
12:50 PM50 °FSprinkles. Partly sunny.56 mph100%28.77 "Hg3 mi
12:20 PM50 °FSprinkles. Partly sunny.50 mph100%28.82 "Hg3 mi
11:20 AM54 °FSprinkles. Partly sunny.47 mph82%28.91 "Hg4 mi
10:50 AM50 °FSprinkles. Partly sunny.45 mph88%28.94 "Hg4 mi
10:20 AM55 °FSprinkles. Partly sunny.41 mph72%28.97 "HgN/A
9:50 AM55 °FScattered showers. Scattered clouds.43 mph72%29.00 "HgN/A
9:20 AM55 °FPartly sunny.41 mph77%29.00 "HgN/A
8:50 AM55 °FScattered clouds.39 mph77%29.03 "HgN/A
8:20 AM55 °FBroken clouds.43 mph72%29.03 "HgN/A
7:50 AM52 °FPartly sunny.25 mph77%29.09 "HgN/A
7:20 AM55 °FPartly sunny.43 mph82%29.06 "HgN/A
6:50 AM55 °FPassing clouds.40 mph88%29.09 "HgN/A
5:50 AM55 °FPassing clouds.36 mph94%29.12 "HgN/A
4:50 AM57 °FPassing clouds.38 mph94%29.15 "HgN/A
3:50 AM57 °FPassing clouds.37 mph94%29.18 "HgN/A
Weather by CustomWeather, © 2016

See weather overviewHow to use our weather pages